Location: Heilbronn
(49.1548°N, 9.2780°E)
Time: 04:22:21
(UTC+01:00)

ISS - Pass Details

Date: 14 February 2018
Orbit: 403 x 407 km, 51.6° (Epoch: 18 February)

Event Time Altitude Azimuth Distance (km) Brightness Sun altitude
Rises 18:24:46 0° 281° (W) 2,320 1.5 -7.7°
Reaches altitude 10° 18:27:46 10° 251° (WSW) 1,456 0.6 -8.2°
Maximum altitude 18:29:14 13° 224° (SW) 1,310 -0.4 -8.4°
Drops below altitude 10° 18:30:43 10° 197° (SSW) 1,452 -0.7 -8.7°
Sets 18:33:42 0° 167° (SSE) 2,306 0.0 -9.1°
